Regional Weather Roundup
Issued by NWS Lake Charles, LA

Home | Current Version | Previous Version | Text Only | Print | Product List | Glossary On
Versions: 1 2 3 4 5 6 7 8 9 10 11 12 13 14 15 16 17 18 19 20 21 22 23 24 25 26 27
000
ASUS44 KLCH 240910
RWRLCH
REGIONAL WEATHER ROUNDUP
NATIONAL WEATHER SERVICE LAKE CHARLES LA
400 AM CDT SUN JUL 24 2016

Note: "fair" indicates few or no clouds below 12,000 feet with no
significant weather and/or obstructions to visibility.


ACROSS SOUTHEAST TEXAS

CITY           SKY/WX    TMP DP  RH WIND       PRES   REMARKS
BEAUMONT       CLEAR     79  77  94 SW3       29.92F
BEAUMONT CITY  FAIR      79  76  90 CALM      29.94R
ORANGE         MOSUNNY   81  76  82 CALM      29.94S
JASPER         CLEAR     77  74  91 CALM      29.97R
$$

ACROSS CENTRAL LOUISIANA

CITY           SKY/WX    TMP DP  RH WIND       PRES   REMARKS
LEESVILLE      CLOUDY    80  76  89 W3        29.94S
FULLERTON      FAIR      78  75  90 CALM      29.92S
ALEXANDRIA INT PTCLDY    79  76  90 SW3       29.92S
ESLER FIELD    MOCLDY    77  77 100 CALM      29.94R FOG
DERIDDER       FAIR      79  78  96 CALM      29.96S
OAKDALE        MOSUNNY   76  75  97 CALM      29.94S
OPELOUSAS      FAIR      77  76  96 NW3       29.94R
$$

ACROSS SOUTHWEST AND SOUTH CENTRAL LOUISIANA

CITY           SKY/WX    TMP DP  RH WIND       PRES   REMARKS
SULPHUR        SUNNY     82  77  86 CALM      29.94R
LAKE CHARLES   CLEAR     80  77  90 CALM      29.93R
CHENNAULT INT  PTCLDY    78  77  96 CALM      29.94R
CAMERON PHI    PTSUNNY   86  77  74 SW12      29.92R
DEQUINCY       FAIR      76  76  99 CALM      29.94S
JENNINGS       FAIR      81  77  89 CALM      29.93S
LAFAYETTE      CLEAR     81  76  84 S3        29.94S
NEW IBERIA     PTCLDY    79  77  94 CALM      29.94S
ABBEVILLE      FAIR      79  78  97 CALM      29.94S
PATTERSON      PTCLDY    78  77  96 CALM      29.94F
SALT POINT       N/A     86  75  69 VRB3      29.92S
$$

SELECTED SITES ACROSS THE REGION

CITY           SKY/WX    TMP DP  RH WIND       PRES   REMARKS
HOUSTON BUSH   PTCLDY    82  76  81 CALM      29.93R
HOUSTON HOBBY  PTCLDY    80  76  87 S3        29.92S
GALVESTON      PTCLDY    84  77  79 S12       29.93S
COLLEGE STAT   PTCLDY    80  75  84 S3        29.93S
CONROE         PTCLDY    81  75  82 SW3       29.93S
HUNTSVILLE     PTCLDY    81  75  82 S5        29.94R
LUFKIN         CLOUDY    78  74  87 CALM      29.94R
SHREVEPORT     CLOUDY    78  76  93 S5        29.93S
MONROE         PTCLDY    75  74  96 CALM      29.94S
NATCHEZ MS     MOCLDY    77  72  83 S5        29.95R
BATON ROUGE    PTCLDY    77  74  90 CALM      29.94S
N.O. INTL ARPT PTCLDY    83  76  79 SW3       29.94S
SLIDELL        PTCLDY    77  75  93 CALM      29.94S
$$

MARINE REPORTS

STATION/POSITION TIME  SKY/WX   TEMP    WIND        PRES    VSBY
                                AIR SEA DIR/SP/G
                 (UTC)          (F)     (DEG/KT/KT) (MB)    (MI)
BUOY 30 S HIGH I 0850            86 88  200/ 14/ 16 1013.1R
WVE H/P(F/S)=  2/ 4

SEA RIM ST PARK  0900            86     190/ 11/ 14 1013.8F
PORT ARTHUR      0800               89  200/  4/  5 1013.5S
SABINE PASS N    0800            85 91  200/  8/ 10 1014.7S
TEXAS POINT      NOT AVBL
CALCASIEU PASS   0800            87 90  210/ 12/ 14 1012.8F
LK CHARLES BEACH 0800            81 90              1013.9S
MARSH ISLAND     0800            87                   N/A
FRESH WATER LOCK 0800            86 89  180/  7/ 10 1014.2F
AMERADA PASS     0800            83 87  170/  1/  3 1013.8F
$$




USA.gov is the U.S. government's official web portal to all federal, state and local government web resources and services.